Location: Melara
(45.0500°N, 11.1833°E)
Time: 23:33:49
(UTC+00:00)

ERBS - Pass Details

Date: 26 May 2022
Orbit: 358 x 376 km, 57.0° (Epoch: 02 July)

Event Time Altitude Azimuth Distance (km) Brightness Sun altitude
Exits shadow 00:30:59 43° 53° (NE) 533 3.1 -21.5°
Drops below altitude 10° 00:33:09 10° 50° (NE) 1,373 5.7 -21.3°
Enters shadow 01:28:09 -70° 234° (SW) 12,383 9.6 -17.0°
